When you browse on this site, cookies collect data to enhance your experience and personalize the content and advertising you see.
Visit our Privacy Policy to learn more. By continuing to use the site, you agree to this use of cookies and data.
  • In Czech Republic
  • List of Countries
  • For 7 days
  • Water Temperature
  • Weather Map
  • Weather Widgets
  • user-avatar
    Login

    Hourly Weather Srednie Marmyzhi

    Today, 10 April, Friday

    Time Temperature Precipitation Wind Pressure Humidity
    00:00 +8°C° 0 mm 5 mps 739 mmHg 71%
    01:00 +8°C° 0 mm 5 mps 739 mmHg 72%
    02:00 +8°C° 0 mm 5 mps 738 mmHg 72%
    03:00 +7°C° 1.1 mm 5 mps 738 mmHg 78%
    04:00 +7°C° 1.1 mm 5 mps 737 mmHg 85%
    05:00 +7°C° 1.1 mm 4 mps 737 mmHg 92%
    06:00 +7°C° 0.8 mm 4 mps 737 mmHg 90%
    07:00 +7°C° 0.8 mm 4 mps 737 mmHg 88%
    08:00 +7°C° 0.8 mm 4 mps 738 mmHg 86%
    09:00 +7°C° 0.1 mm 5 mps 738 mmHg 80%
    10:00 +7°C° 0.1 mm 5 mps 738 mmHg 75%
    11:00 +7°C° 0.1 mm 5 mps 739 mmHg 70%
    12:00 +7°C° 0 mm 6 mps 739 mmHg 64%
    13:00 +8°C° 0 mm 6 mps 739 mmHg 59%
    14:00 +8°C° 0 mm 6 mps 740 mmHg 53%
    15:00 +8°C° 0 mm 6 mps 740 mmHg 53%
    16:00 +7°C° 0 mm 5 mps 740 mmHg 52%
    17:00 +7°C° 0 mm 5 mps 740 mmHg 52%
    18:00 +6°C° 0 mm 5 mps 740 mmHg 56%
    19:00 +5°C° 0 mm 4 mps 741 mmHg 60%
    20:00 +4°C° 0 mm 3 mps 741 mmHg 64%
    21:00 +4°C° 0 mm 3 mps 741 mmHg 67%
    22:00 +3°C° 0 mm 4 mps 741 mmHg 70%
    23:00 +1°C° 0 mm 4 mps 741 mmHg 73%

    Tomorrow, 11 April, Saturday

    Time Temperature Precipitation Wind Pressure Humidity
    00:00 +1°C° 0 mm 4 mps 742 mmHg 74%
    01:00 +1°C° 0 mm 3 mps 742 mmHg 76%
    02:00 +1°C° 0 mm 3 mps 742 mmHg 77%
    03:00 0°C° 0 mm 3 mps 742 mmHg 77%
    04:00 0°C° 0 mm 3 mps 742 mmHg 78%
    05:00 +1°C° 0 mm 2 mps 742 mmHg 78%
    06:00 +1°C° 0 mm 3 mps 742 mmHg 73%
    07:00 +2°C° 0 mm 3 mps 742 mmHg 67%
    08:00 +3°C° 0 mm 4 mps 742 mmHg 62%
    09:00 +3°C° 0.2 mm 4 mps 742 mmHg 62%
    10:00 +3°C° 0.2 mm 5 mps 742 mmHg 61%
    11:00 +4°C° 0.2 mm 6 mps 742 mmHg 61%
    12:00 +4°C° 0.2 mm 6 mps 742 mmHg 56%
    13:00 +4°C° 0.2 mm 7 mps 742 mmHg 52%
    14:00 +4°C° 0.2 mm 7 mps 743 mmHg 47%
    15:00 +4°C° 0 mm 7 mps 743 mmHg 45%
    16:00 +3°C° 0 mm 7 mps 743 mmHg 43%
    17:00 +3°C° 0 mm 7 mps 743 mmHg 41%
    18:00 +2°C° 0 mm 6 mps 744 mmHg 47%
    19:00 +1°C° 0 mm 5 mps 744 mmHg 53%
    20:00 0°C° 0 mm 4 mps 744 mmHg 59%
    21:00 0°C° 0 mm 5 mps 745 mmHg 62%
    22:00 0°C° 0 mm 5 mps 745 mmHg 66%
    23:00 -2°C° 0 mm 6 mps 746 mmHg 70%

    Day after tomorrow, 12 April, Sunday

    Time Temperature Precipitation Wind Pressure Humidity
    00:00 -1°C° 0 mm 5 mps 746 mmHg 68%
    01:00 -2°C° 0 mm 5 mps 746 mmHg 66%
    02:00 -4°C° 0 mm 5 mps 747 mmHg 64%
    03:00 -4°C° 0 mm 5 mps 747 mmHg 66%
    04:00 -4°C° 0 mm 5 mps 747 mmHg 68%
    05:00 -4°C° 0 mm 5 mps 747 mmHg 70%
    06:00 -2°C° 0 mm 5 mps 747 mmHg 63%
    07:00 -1°C° 0 mm 5 mps 748 mmHg 56%
    08:00 -1°C° 0 mm 6 mps 748 mmHg 49%
    09:00 +1°C° 0 mm 6 mps 748 mmHg 46%
    10:00 +2°C° 0 mm 6 mps 748 mmHg 43%
    11:00 +3°C° 0 mm 6 mps 747 mmHg 40%
    12:00 +3°C° 0 mm 5 mps 747 mmHg 40%
    13:00 +5°C° 0 mm 5 mps 747 mmHg 40%
    14:00 +5°C° 0 mm 5 mps 747 mmHg 40%
    15:00 +5°C° 0 mm 5 mps 747 mmHg 41%
    16:00 +5°C° 0 mm 4 mps 747 mmHg 42%
    17:00 +5°C° 0 mm 4 mps 747 mmHg 44%
    18:00 +4°C° 0 mm 3 mps 747 mmHg 49%
    19:00 +4°C° 0 mm 2 mps 747 mmHg 54%
    20:00 +4°C° 0 mm 1 mps 747 mmHg 59%
    21:00 +4°C° 0 mm 1 mps 746 mmHg 62%
    22:00 +2°C° 0 mm 2 mps 746 mmHg 64%
    23:00 +2°C° 0 mm 2 mps 746 mmHg 67%

    13 April, Monday

    Time Temperature Precipitation Wind Pressure Humidity
    00:00 +2°C° 0 mm 2 mps 746 mmHg 70%
    01:00 +1°C° 0 mm 3 mps 745 mmHg 73%
    02:00 +1°C° 0 mm 3 mps 745 mmHg 76%
    03:00 0°C° 0 mm 4 mps 745 mmHg 75%
    04:00 0°C° 0 mm 4 mps 744 mmHg 74%
    05:00 0°C° 0 mm 5 mps 744 mmHg 73%
    06:00 +1°C° 0 mm 6 mps 743 mmHg 65%
    07:00 +3°C° 0 mm 6 mps 743 mmHg 57%
    08:00 +4°C° 0 mm 7 mps 743 mmHg 49%
    09:00 +5°C° 0 mm 8 mps 742 mmHg 48%
    10:00 +6°C° 0 mm 8 mps 742 mmHg 46%
    11:00 +9°C° 0 mm 8 mps 741 mmHg 44%
    12:00 +10°C° 0 mm 8 mps 741 mmHg 45%
    13:00 +11°C° 0 mm 8 mps 740 mmHg 45%
    14:00 +12°C° 0 mm 9 mps 740 mmHg 46%
    15:00 +12°C° 0 mm 8 mps 739 mmHg 48%
    16:00 +11°C° 0 mm 8 mps 739 mmHg 51%
    17:00 +11°C° 0 mm 7 mps 738 mmHg 53%
    18:00 +10°C° 0 mm 7 mps 738 mmHg 56%
    19:00 +10°C° 0 mm 7 mps 738 mmHg 58%
    20:00 +9°C° 0 mm 7 mps 738 mmHg 61%
    21:00 +8°C° 0 mm 7 mps 738 mmHg 62%
    22:00 +7°C° 0 mm 8 mps 737 mmHg 63%
    23:00 +7°C° 0 mm 8 mps 737 mmHg 64%

    14 April, Tuesday

    Time Temperature Precipitation Wind Pressure Humidity
    00:00 +7°C° 0 mm 8 mps 736 mmHg 65%
    01:00 +6°C° 0 mm 8 mps 736 mmHg 67%
    02:00 +6°C° 0 mm 8 mps 735 mmHg 68%
    03:00 +6°C° 0 mm 8 mps 735 mmHg 69%
    04:00 +5°C° 0 mm 8 mps 735 mmHg 71%
    05:00 +5°C° 0 mm 8 mps 735 mmHg 72%
    06:00 +6°C° 0 mm 9 mps 734 mmHg 68%
    07:00 +7°C° 0 mm 9 mps 734 mmHg 64%
    08:00 +7°C° 0 mm 10 mps 734 mmHg 61%
    09:00 +8°C° 0 mm 10 mps 734 mmHg 56%
    10:00 +9°C° 0 mm 10 mps 734 mmHg 52%
    11:00 +11°C° 0 mm 11 mps 734 mmHg 47%
    12:00 +11°C° 0 mm 11 mps 734 mmHg 45%
    13:00 +11°C° 0 mm 11 mps 734 mmHg 44%
    14:00 +12°C° 0 mm 11 mps 734 mmHg 42%
    15:00 +11°C° 0 mm 10 mps 733 mmHg 45%
    16:00 +11°C° 0 mm 8 mps 733 mmHg 48%
    17:00 +11°C° 0 mm 7 mps 733 mmHg 51%
    18:00 +10°C° 0 mm 7 mps 733 mmHg 52%
    19:00 +10°C° 0 mm 8 mps 733 mmHg 53%
    20:00 +9°C° 0 mm 8 mps 733 mmHg 54%
    21:00 +7°C° 0.7 mm 8 mps 733 mmHg 63%
    22:00 +7°C° 0.7 mm 8 mps 733 mmHg 73%
    23:00 +6°C° 0.7 mm 8 mps 733 mmHg 83%

    15 April, Wednesday

    Time Temperature Precipitation Wind Pressure Humidity
    00:00 +6°C° 0.5 mm 7 mps 733 mmHg 84%
    01:00 +5°C° 0.5 mm 7 mps 732 mmHg 86%
    02:00 +5°C° 0.5 mm 6 mps 732 mmHg 87%
    03:00 +5°C° 0.4 mm 6 mps 731 mmHg 84%
    04:00 +5°C° 0.4 mm 5 mps 731 mmHg 81%
    05:00 +5°C° 0.4 mm 5 mps 731 mmHg 77%
    06:00 +5°C° 0.9 mm 5 mps 730 mmHg 77%
    07:00 +6°C° 0.9 mm 5 mps 729 mmHg 76%
    08:00 +6°C° 0.9 mm 5 mps 729 mmHg 75%
    09:00 +5°C° 0.9 mm 6 mps 728 mmHg 80%
    10:00 +5°C° 0.9 mm 7 mps 728 mmHg 84%
    11:00 +5°C° 0.9 mm 7 mps 727 mmHg 89%
    12:00 +5°C° 0.9 mm 8 mps 727 mmHg 88%
    13:00 +5°C° 0.9 mm 8 mps 727 mmHg 87%
    14:00 +5°C° 0.9 mm 8 mps 726 mmHg 86%
    15:00 +4°C° 0.1 mm 8 mps 727 mmHg 81%
    16:00 +2°C° 0.1 mm 8 mps 727 mmHg 76%
    17:00 +1°C° 0.1 mm 8 mps 727 mmHg 72%
    18:00 0°C° 0 mm 7 mps 727 mmHg 74%
    19:00 -1°C° 0 mm 7 mps 728 mmHg 76%
    20:00 -1°C° 0 mm 6 mps 729 mmHg 78%
    21:00 -1°C° 0 mm 6 mps 729 mmHg 81%
    22:00 -2°C° 0 mm 6 mps 730 mmHg 84%
    23:00 -2°C° 0 mm 7 mps 730 mmHg 86%
    Show more